Back to catalog

CZ-4 DEB

AliveSSO
NORAD 26196·DEBRIS·🇨🇳 China

Launched Oct 14, 1999 from Taiyuan Satellite Launch Center

Loading…

Next Passes (next 24 hours)

TLE

FreshSource: Space-Track

Epoch: Sep 14, 2026, 13:45 UTC

1 26196U 99057CJ  26257.57355720  .00000337  00000-0  24422-3 0  9990
2 26196  98.8814 148.5334 0335941 316.6659 159.1123 13.78929961329341

Track CZ-4 DEB in real time with AllMySat

Download on the App Store